User: anonymous   Login
Location: Arrakis Observatory
(44.1122°N, 95.7153°W)
Time: 07:21:52
(UTC-05:00)
Language:

Coronas F rocket - Orbit

View from above orbital plane
View from above orbital plane
View from above satellite
View from above satellite

Ground track
Ground track

The orbit data is extracted from the following two-line orbital elements,

1 26874U 01032B   15213.83514710  .00014496  00000-0  13722-3 0  9996
2 26874 082.4648 268.6531 0009416 340.9382 019.1524 15.66732422785270
Epoch (UTC): 01 August 2015 20:02:36
Eccentricity: 0.0009416
inclination: 82.4648°
perigee height: 362 km
apogee height: 374 km
right ascension of ascending node: 268.6531°
argument of perigee: 340.9382°
revolutions per day: 15.66732422
mean anomaly at epoch: 19.1524°
orbit number at epoch: 78527

The dashed part of the orbit path shows where the satellite is in the earth's shadow,  

DLR